Location: Leipzig
(51.3392°N, 12.3528°E)
Time: 04:35:35
(UTC+01:00)

ISS - Pass Details

Date: 13 November 2017
Orbit: 402 x 407 km, 51.6° (Epoch: 23 November)

Event Time Altitude Azimuth Distance (km) Brightness Sun altitude
Exits shadow 05:02:22 48° 129° (SE) 535 -3.0 -22.1°
Drops below altitude 10° 05:04:52 10° 112° (ESE) 1,455 0.0 -21.7°
Sets 05:06:56 0° 110° (ESE) 2,312 1.3 -21.4°
